AirNav   Everest Fuels
 
 391 users online  

PS01 Sterling Heliport
Croydon, Pennsylvania, USA

GOING TO CROYDON?


FAA INFORMATION EFFECTIVE 15 JULY 2021

Location

FAA Identifier: PS01
Lat/Long: 40-04-52.6000N 074-53-39.2000W
40-04.876667N 074-53.653333W
40.0812778,-74.8942222
(estimated)
Elevation: 24 ft. / 7 m (estimated)
From city: 1 mile SE of CROYDON, PA
Time zone: UTC -4 (UTC -5 during Standard Time)
Zip code: 19021

Heliport Operations

Heliport use: Private use. Permission required prior to landing
Activation date: 10/2006
Control tower: no
ARTCC: NEW YORK CENTER
FSS: WILLIAMSPORT FLIGHT SERVICE STATION
Attendance: MON-FRI 0800-1700
Wind indicator: yes
Segmented circle: no

Heliport Communications

WX ASOS at PNE (5 nm W): 121.15 (215-677-0146)
WX ASOS at VAY (9 nm S): 119.325 (609-267-1176)
WX ASOS at TTN (12 nm N): 126.775 (609-538-8690)
WX AWOS-3 at LOM (17 nm W): 118.925 (215-646-1068)
WX ASOS at DYL (18 nm NW): 118.875 (215-345-0392)

Nearby radio navigation aids

VOR radial/distance  VOR name  Freq  Var
ARDr187/10.3YARDLEY VOR/DME108.2010W
GXUr299/14.3MC GUIRE VORTAC110.6012W
RBVr258/19.7ROBBINSVILLE VORTAC113.8010W
CYNr317/26.5COYLE VORTAC113.4010W
SBJr203/30.9SOLBERG VOR/DME112.9010W
PTWr114/31.7POTTSTOWN VORTAC116.5009W
OODr045/32.7WOODSTOWN VORTAC112.8010W
VCNr016/32.8CEDAR LAKE VOR/DME115.2010W
COLr259/36.4COLTS NECK VOR/DME115.4011W
MXEr084/37.0MODENA VORTAC113.2009W

 
NDB name  Hdg/Dist  Freq  Var  ID
AMBLER110/18.127512WING .. -. --.
LAKEHURST286/25.839611WNEL -. . .-..

Heliport Services

Airframe service: MAJOR
Powerplant service: MAJOR

Runway Information

Helipad H1

Dimensions: 50 x 50 ft. / 15 x 15 m
Surface: concrete, in good condition
Traffic pattern: leftleft

Heliport Ownership and Management from official FAA records

Ownership: Privately-owned
Owner: STERLING HELICOPTER
1226 RIVER ROAD
CROYDON, PA 19021
Phone 215-271-2510
Manager: PHIL BIDDEN
1226 RIVER ROAD
CROYDON, PA 19021
Phone 215-271-2510

Additional Remarks

CALL PRIOR TO USE FOR PERMISSION, NOISE ABATEMENT PROC & PREF FLT ROUTE.
AVOID OVR FLT OF HOMES & SCHOOL 0.5 NM NE.
FOR CD CTC PHILADELPHIA APCH AT 800-354-9884.
FATO 80 FT BY 80 FT.

Instrument Procedures

There are no published instrument procedures at PS01.

Some nearby airports with instrument procedures:

KPNE - Northeast Philadelphia Airport (5 nm W)
KVAY - South Jersey Regional Airport (9 nm S)
N14 - Flying W Airport (10 nm SE)
KTTN - Trenton Mercer Airport (12 nm N)
KWRI - McGuire Field (Joint Base Mc Guire Dix Lakehurst) Airport (14 nm E)
N87 - Trenton-Robbinsville Airport (16 nm NE)
KLOM - Wings Field Airport (17 nm W)
19N - Camden County Airport (18 nm S)
KDYL - Doylestown Airport (18 nm NW)
 
Loc | Ops | Rwys | IFR | FBO | Links
Com | Nav | Svcs | Stats | Notes
Area around PS01 (Sterling Heliport)
 
Road maps at: MapQuest Bing Google
 
Aerial photo
No photo
 
Sectional chart

 
Airport distance calculator
Flying to Sterling Heliport? Find the distance to fly.

From to PS01

Sunrise and sunset
Times for 28-Jul-2021
 Local
(UTC-4)
 Zulu
(UTC)
Morning civil twilight05:2409:24
Sunrise05:5509:55
Sunset20:1700:17
Evening civil twilight20:4800:48

Current date and time
Zulu (UTC)  28-Jul-2021 06:44:11
Local (UTC-4)  28-Jul-2021 02:44:11
 
METAR
KPNE 
6nm W 
280554Z AUTO 02007KT 10SM FEW120 23/16 A2997 RMK AO2 SLP145 T02330161 10294 20222 55003
KVAY 
9nm S 
ASOS 119.325 609-267-1176
280554Z AUTO 00000KT 10SM CLR 21/17 A2994 RMK AO2 SLP136 T02110167 10306 20206 56010
KTTN 
13nm N 
ASOS 133.70 609-538-8690
280553Z AUTO 34006KT 10SM FEW070 SCT095 21/17 A2996 RMK AO2 LTG DSNT NW SLP137 T02060167 10294 20206 53001
KWRI 
15nm E 
280556Z AUTO 02008KT 10SM CLR 21/18 A2995 RMK AO2 SLP141 T02070177 10273 20206 55006
KLOM 
17nm W 
280635Z AUTO 00000KT 10SM BKN070 BKN095 20/17 A2997 RMK AO2 T02020174
KDYL 
18nm NW 
280554Z AUTO 02003KT 10SM BKN070 BKN090 22/16 A2996 RMK AO2 LTG DSNT N SLP140 T02220156 10300 20211 53002
TAF
KPNE 
6nm W 
280540Z 2806/2906 02004KT P6SM SKC FM281600 01005KT P6SM FEW050 FM282300 10003KT P6SM SCT040
KTTN 
13nm N 
280540Z 2806/2906 01006KT P6SM SKC FM281500 36005KT P6SM FEW040 FM282300 10003KT P6SM SCT040
KWRI 
15nm E 
280200Z 2802/2908 VRB04KT 9999 FEW075 QNH2993INS BECMG 2805/2806 29004KT 9999 SCT075 SCT120 QNH2994INS BECMG 2812/2813 36008KT 9999 SCT045 QNH2996INS BECMG 2821/2822 07006KT 9999 FEW045 QNH2998INS BECMG 2901/2902 12005KT 9999 SCT040 BKN100 QNH3001INS TX29/2819Z TN20/2810Z
NOTAMs
Click for the latest NOTAMs
NOTAMs are issued by the DoD/FAA and will open in a separate window not controlled by AirNav.

 

 
 

Would you like to see your business listed on this page?

 If your business provides an interesting product or service to pilots, flight crews, aircraft, or users of the Sterling Heliport, you should consider listing it here.  To start the listing process, click on the button below
 
Add a business
 

Other Pages about Sterling Heliport

Update a link
 
Copyright © AirNav, LLC. All rights reserved. Privacy Policy  Contact